| time (UTC) | temp F | wind direction | speed knots | gust knots | rain 1hr in | rain 24hr in | rain mn in | humidity % | barometer mb |
| 20260510002013 | 96 | 293 | 2.6 | 7.8 | 0.00 | 0.00 | 0.00 | 9 | 1009.7 |
| 20260510001530 | 96 | 3 | 3.5 | 7.0 | 0.00 | 0.00 | 0.00 | 9 | 1009.7 |
| 20260510001026 | 97 | 317 | 2.6 | 6.1 | 0.00 | 0.00 | 0.00 | 9 | 1009.6 |
| 20260510000522 | 98 | 294 | 3.5 | 11.3 | 0.00 | 0.00 | 0.00 | 8 | 1009.7 |
| 20260510000029 | 98 | 298 | 3.5 | 11.3 | 0.00 | 0.00 | 0.00 | 8 | 1009.7 |
| 20260509235530 | 98 | 265 | 4.3 | 10.4 | 0.00 | 0.00 | 0.00 | 8 | 1009.7 |
| 20260509235026 | 99 | 266 | 3.5 | 10.4 | 0.00 | 0.00 | 0.00 | 8 | 1009.9 |
| 20260509234522 | 98 | 300 | 1.7 | 6.1 | 0.00 | 0.00 | 0.00 | 9 | 1009.8 |
| 20260509234022 | 98 | 245 | 1.7 | 7.8 | 0.00 | 0.00 | 0.00 | 8 | 1009.8 |
| 20260509233517 | 98 | 275 | 4.3 | 7.8 | 0.00 | 0.00 | 0.00 | 8 | 1009.9 |
| 20260509233013 | 98 | 4 | 2.6 | 7.0 | 0.00 | 0.00 | 0.00 | 9 | 1010.0 |
| 20260509232529 | 97 | 36 | 2.6 | 8.7 | 0.00 | 0.00 | 0.00 | 8 | 1010.0 |
| 20260509232024 | 97 | 359 | 2.6 | 8.7 | 0.00 | 0.00 | 0.00 | 8 | 1010.0 |
| 20260509231519 | 98 | 323 | 1.7 | 6.1 | 0.00 | 0.00 | 0.00 | 9 | 1010.1 |
| 20260509231016 | 98 | 11 | 1.7 | 5.2 | 0.00 | 0.00 | 0.00 | 8 | 1010.1 |
| 20260509230516 | 100 | 273 | 2.6 | 9.6 | 0.00 | 0.00 | 0.00 | 8 | 1010.3 |
| 20260509230043 | 100 | 271 | 4.3 | 9.6 | 0.00 | 0.00 | 0.00 | 8 | 1010.3 |
| 20260509225524 | 100 | 260 | 4.3 | 12.2 | 0.00 | 0.00 | 0.00 | 8 | 1010.3 |
| 20260509225019 | 100 | 277 | 7.0 | 11.3 | 0.00 | 0.00 | 0.00 | 8 | 1010.4 |
| 20260509224516 | 100 | 324 | 3.5 | 10.4 | 0.00 | 0.00 | 0.00 | 8 | 1010.5 |
| 20260509224032 | 99 | 290 | 4.3 | 10.4 | 0.00 | 0.00 | 0.00 | 8 | 1010.5 |
| 20260509223528 | 99 | 271 | 3.5 | 7.8 | 0.00 | 0.00 | 0.00 | 9 | 1010.6 |
| 20260509223027 | 99 | 339 | 2.6 | 6.1 | 0.00 | 0.00 | 0.00 | 9 | 1010.6 |
| 20260509222523 | 98 | 339 | 1.7 | 9.6 | 0.00 | 0.00 | 0.00 | 9 | 1010.6 |
| 20260509222019 | 98 | 356 | 2.6 | 9.6 | 0.00 | 0.00 | 0.00 | 9 | 1010.8 |
| 20260509221515 | 99 | 309 | 1.7 | 6.1 | 0.00 | 0.00 | 0.00 | 9 | 1010.7 |
| 20260509221031 | 99 | 76 | 2.6 | 9.6 | 0.00 | 0.00 | 0.00 | 8 | 1010.9 |
| 20260509220526 | 99 | 270 | 1.7 | 11.3 | 0.00 | 0.00 | 0.00 | 9 | 1010.9 |
| 20260509220035 | 99 | 291 | 6.1 | 10.4 | 0.00 | 0.00 | 0.00 | 9 | 1011.1 |
| 20260509215520 | 98 | 294 | 2.6 | 9.6 | 0.00 | 0.00 | 0.00 | 9 | 1011.1 |
| 20260509215016 | 96 | 113 | 0.9 | 9.6 | 0.00 | 0.00 | 0.00 | 9 | 1011.2 |
| 20260509214531 | 97 | 65 | 4.3 | 9.6 | 0.00 | 0.00 | 0.00 | 9 | 1011.3 |
| 20260509214027 | 100 | 289 | 4.3 | 10.4 | 0.00 | 0.00 | 0.00 | 9 | 1011.4 |
| 20260509213523 | 100 | 294 | 5.2 | 10.4 | 0.00 | 0.00 | 0.00 | 9 | 1011.4 |
| 20260509213020 | 99 | 11 | 2.6 | 7.0 | 0.00 | 0.00 | 0.00 | 9 | 1011.4 |
| 20260509212516 | 100 | 349 | 2.6 | 7.0 | 0.00 | 0.00 | 0.00 | 9 | 1011.6 |
| 20260509212016 | 99 | 320 | 3.5 | 7.8 | 0.00 | 0.00 | 0.00 | 9 | 1011.6 |
| 20260509211531 | 99 | 292 | 3.5 | 7.8 | 0.00 | 0.00 | 0.00 | 9 | 1011.8 |
| 20260509211028 | 97 | 313 | 3.5 | 7.0 | 0.00 | 0.00 | 0.00 | 9 | 1012.0 |
| 20260509210524 | 97 | 353 | 2.6 | 7.0 | 0.00 | 0.00 | 0.00 | 9 | 1012.0 |
| 20260509210031 | 99 | 6 | 1.7 | 7.0 | 0.00 | 0.00 | 0.00 | 9 | 1012.1 |
| 20260509205513 | 99 | 353 | 2.6 | 8.7 | 0.00 | 0.00 | 0.00 | 9 | 1012.2 |
| 20260509205029 | 98 | 285 | 1.7 | 8.7 | 0.00 | 0.00 | 0.00 | 9 | 1012.1 |
| 20260509204524 | 97 | 38 | 1.7 | 8.7 | 0.00 | 0.00 | 0.00 | 9 | 1012.2 |
| 20260509204025 | 97 | 11 | 4.3 | 8.7 | 0.00 | 0.00 | 0.00 | 9 | 1012.4 |
| 20260509203520 | 98 | 71 | 2.6 | 7.8 | 0.00 | 0.00 | 0.00 | 9 | 1012.4 |
| 20260509203016 | 98 | 12 | 3.5 | 7.8 | 0.00 | 0.00 | 0.00 | 9 | 1012.6 |
| 20260509202532 | 98 | 279 | 1.7 | 7.8 | 0.00 | 0.00 | 0.00 | 9 | 1012.8 |
| 20260509202028 | 99 | 320 | 4.3 | 8.7 | 0.00 | 0.00 | 0.00 | 9 | 1012.7 |
| 20260509201524 | 98 | 280 | 3.5 | 8.7 | 0.00 | 0.00 | 0.00 | 9 | 1012.7 |
| 20260509201019 | 99 | 289 | 3.5 | 8.7 | 0.00 | 0.00 | 0.00 | 9 | 1012.9 |
| 20260509200519 | 99 | 229 | 1.7 | 10.4 | 0.00 | 0.00 | 0.00 | 9 | 1013.0 |
| 20260509200047 | 99 | 260 | 3.5 | 9.6 | 0.00 | 0.00 | 0.00 | 9 | 1013.1 |
| 20260509195528 | 99 | 253 | 2.6 | 7.8 | 0.00 | 0.00 | 0.00 | 9 | 1013.1 |
| 20260509195024 | 99 | 275 | 3.5 | 13.0 | 0.00 | 0.00 | 0.00 | 9 | 1013.0 |
| 20260509194520 | 97 | 309 | 4.3 | 13.0 | 0.00 | 0.00 | 0.00 | 9 | 1013.1 |
| 20260509194016 | 97 | 356 | 2.6 | 8.7 | 0.00 | 0.00 | 0.00 | 9 | 1013.2 |
| 20260509193532 | 100 | 257 | 2.6 | 9.6 | 0.00 | 0.00 | 0.00 | 10 | 1013.3 |
| 20260509193031 | 98 | 279 | 3.5 | 9.6 | 0.00 | 0.00 | 0.00 | 10 | 1013.2 |
| 20260509192527 | 97 | 267 | 3.5 | 8.7 | 0.00 | 0.00 | 0.00 | 10 | 1013.3 |
| 20260509192023 | 97 | 303 | 4.3 | 7.0 | 0.00 | 0.00 | 0.00 | 10 | 1013.4 |
| 20260509191519 | 96 | 355 | 2.6 | 8.7 | 0.00 | 0.00 | 0.00 | 10 | 1013.4 |
| 20260509191015 | 96 | 33 | 4.3 | 9.6 | 0.00 | 0.00 | 0.00 | 10 | 1013.3 |
| 20260509190531 | 97 | 350 | 2.6 | 4.3 | 0.00 | 0.00 | 0.00 | 10 | 1013.4 |
| 20260509190038 | 97 | 331 | 1.7 | 9.6 | 0.00 | 0.00 | 0.00 | 11 | 1013.5 |
| 20260509185523 | 98 | 360 | 3.5 | 9.6 | 0.00 | 0.00 | 0.00 | 10 | 1013.6 |
| 20260509185019 | 97 | 258 | 2.6 | 7.8 | 0.00 | 0.00 | 0.00 | 11 | 1013.7 |
| 20260509184515 | 97 | 271 | 4.3 | 7.8 | 0.00 | 0.00 | 0.00 | 10 | 1013.8 |
| 20260509184031 | 95 | 281 | 0.9 | 7.8 | 0.00 | 0.00 | 0.00 | 11 | 1013.8 |
| 20260509183526 | 97 | 271 | 3.5 | 7.0 | 0.00 | 0.00 | 0.00 | 10 | 1013.8 |
| 20260509183022 | 95 | 345 | 2.6 | 7.0 | 0.00 | 0.00 | 0.00 | 11 | 1013.8 |
| 20260509182518 | 95 | 306 | 1.7 | 7.0 | 0.00 | 0.00 | 0.00 | 11 | 1014.0 |
| 20260509182018 | 96 | 267 | 1.7 | 5.2 | 0.00 | 0.00 | 0.00 | 11 | 1014.1 |
| 20260509181514 | 93 | 38 | 3.5 | 5.2 | 0.00 | 0.00 | 0.00 | 11 | 1014.2 |
| 20260509181030 | 94 | 349 | 1.7 | 7.0 | 0.00 | 0.00 | 0.00 | 12 | 1014.3 |
| 20260509180526 | 93 | 350 | 1.7 | 7.0 | 0.00 | 0.00 | 0.00 | 12 | 1014.4 |
| 20260509180033 | 94 | 15 | 1.7 | 4.3 | 0.00 | 0.00 | 0.00 | 11 | 1014.4 |
| 20260509175514 | 92 | 308 | 0.9 | 5.2 | 0.00 | 0.00 | 0.00 | 12 | 1014.5 |
| 20260509175030 | 91 | 13 | 2.6 | 6.1 | 0.00 | 0.00 | 0.00 | 13 | 1014.7 |
| 20260509174526 | 91 | 44 | 2.6 | 6.1 | 0.00 | 0.00 | 0.00 | 13 | 1014.7 |
| 20260509174026 | 92 | 354 | 2.6 | 8.7 | 0.00 | 0.00 | 0.00 | 13 | 1014.7 |
| 20260509173522 | 93 | 21 | 3.5 | 8.7 | 0.00 | 0.00 | 0.00 | 13 | 1014.6 |
| 20260509173018 | 92 | 320 | 0.9 | 5.2 | 0.00 | 0.00 | 0.00 | 13 | 1014.6 |
| 20260509172513 | 92 | 305 | 1.7 | 5.2 | 0.00 | 0.00 | 0.00 | 14 | 1014.7 |
| 20260509172029 | 91 | 358 | 2.6 | 5.2 | 0.00 | 0.00 | 0.00 | 14 | 1014.7 |
| 20260509171525 | 90 | 351 | 0.0 | 7.8 | 0.00 | 0.00 | 0.00 | 15 | 1014.8 |
| 20260509171022 | 91 | 351 | 2.6 | 7.8 | 0.00 | 0.00 | 0.00 | 14 | 1014.8 |
| 20260509170522 | 90 | 332 | 1.7 | 3.5 | 0.00 | 0.00 | 0.00 | 15 | 1014.8 |
| 20260509170029 | 90 | 23 | 0.9 | 6.1 | 0.00 | 0.00 | 0.00 | 15 | 1014.7 |
| 20260509165530 | 89 | 25 | 0.9 | 6.1 | 0.00 | 0.00 | 0.00 | 16 | 1014.8 |
| 20260509165026 | 90 | 15 | 0.9 | 3.5 | 0.00 | 0.00 | 0.00 | 16 | 1014.9 |
| 20260509164522 | 88 | 15 | 1.7 | 7.0 | 0.00 | 0.00 | 0.00 | 16 | 1014.9 |
| 20260509164018 | 87 | 23 | 2.6 | 7.0 | 0.00 | 0.00 | 0.00 | 17 | 1014.9 |
| 20260509163514 | 88 | 319 | 0.9 | 2.6 | 0.00 | 0.00 | 0.00 | 18 | 1014.9 |
| 20260509163015 | 87 | 334 | 0.9 | 2.6 | 0.00 | 0.00 | 0.00 | 18 | 1015.0 |
| 20260509162531 | 86 | 46 | 0.9 | 2.6 | 0.00 | 0.00 | 0.00 | 19 | 1015.1 |
| 20260509162027 | 86 | 33 | 0.0 | 2.6 | 0.00 | 0.00 | 0.00 | 20 | 1015.1 |
| 20260509161523 | 85 | 33 | 1.7 | 3.5 | 0.00 | 0.00 | 0.00 | 19 | 1015.0 |
| 20260509161018 | 85 | 7 | 1.7 | 3.5 | 0.00 | 0.00 | 0.00 | 19 | 1015.1 |
| 20260509160514 | 83 | 102 | 1.7 | 2.6 | 0.00 | 0.00 | 0.00 | 21 | 1015.0 |
| 20260509160042 | 83 | 102 | 1.7 | 4.3 | 0.00 | 0.00 | 0.00 | 21 | 1015.0 |
| 20260509155528 | 84 | 104 | 0.9 | 3.5 | 0.00 | 0.00 | 0.00 | 22 | 1015.1 |
| 20260509155023 | 81 | 111 | 1.7 | 3.5 | 0.00 | 0.00 | 0.00 | 23 | 1015.1 |
| 20260509154519 | 82 | 112 | 1.7 | 3.5 | 0.00 | 0.00 | 0.00 | 23 | 1015.1 |
| 20260509154015 | 80 | 94 | 1.7 | 4.3 | 0.00 | 0.00 | 0.00 | 24 | 1015.2 |
| 20260509153531 | 80 | 102 | 1.7 | 4.3 | 0.00 | 0.00 | 0.00 | 24 | 1015.1 |
| 20260509153027 | 78 | 135 | 0.9 | 6.1 | 0.00 | 0.00 | 0.00 | 25 | 1015.1 |
| 20260509152524 | 79 | 92 | 2.6 | 6.1 | 0.00 | 0.00 | 0.00 | 26 | 1015.1 |
| 20260509152024 | 77 | 99 | 2.6 | 6.1 | 0.00 | 0.00 | 0.00 | 26 | 1015.1 |
| 20260509151519 | 77 | 94 | 2.6 | 4.3 | 0.00 | 0.00 | 0.00 | 26 | 1015.1 |
| 20260509151015 | 77 | 112 | 1.7 | 4.3 | 0.00 | 0.00 | 0.00 | 27 | 1015.1 |
| 20260509150531 | 76 | 119 | 0.0 | 2.6 | 0.00 | 0.00 | 0.00 | 27 | 1015.1 |
| 20260509150038 | 75 | 119 | 1.7 | 3.5 | 0.00 | 0.00 | 0.00 | 28 | 1015.1 |
| 20260509145520 | 74 | 119 | 1.7 | 3.5 | 0.00 | 0.00 | 0.00 | 28 | 1015.1 |
| 20260509145015 | 74 | 118 | 2.6 | 3.5 | 0.00 | 0.00 | 0.00 | 28 | 1015.1 |
| 20260509144515 | 73 | 137 | 0.9 | 3.5 | 0.00 | 0.00 | 0.00 | 29 | 1015.1 |
| 20260509144031 | 72 | 134 | 2.6 | 3.5 | 0.00 | 0.00 | 0.00 | 29 | 1015.1 |
| 20260509143527 | 72 | 138 | 2.6 | 3.5 | 0.00 | 0.00 | 0.00 | 30 | 1015.1 |
| 20260509143023 | 73 | 139 | 1.7 | 3.5 | 0.00 | 0.00 | 0.00 | 30 | 1015.0 |
| 20260509142519 | 72 | 135 | 1.7 | 5.2 | 0.00 | 0.00 | 0.00 | 30 | 1015.0 |
| 20260509142015 | 71 | 118 | 2.6 | 4.3 | 0.00 | 0.00 | 0.00 | 31 | 1014.9 |
| 20260509141531 | 71 | 122 | 2.6 | 5.2 | 0.00 | 0.00 | 0.00 | 31 | 1014.9 |
| 20260509141027 | 70 | 125 | 1.7 | 5.2 | 0.00 | 0.00 | 0.00 | 31 | 1014.9 |
| 20260509140527 | 70 | 111 | 3.5 | 5.2 | 0.00 | 0.00 | 0.00 | 32 | 1014.9 |
| 20260509140034 | 70 | 116 | 2.6 | 4.3 | 0.00 | 0.00 | 0.00 | 32 | 1014.9 |
| 20260509135516 | 69 | 123 | 1.7 | 4.3 | 0.00 | 0.00 | 0.00 | 33 | 1014.7 |
| 20260509135031 | 69 | 120 | 3.5 | 4.3 | 0.00 | 0.00 | 0.00 | 33 | 1014.8 |
| 20260509134527 | 69 | 123 | 2.6 | 4.3 | 0.00 | 0.00 | 0.00 | 33 | 1014.7 |
| 20260509134023 | 69 | 132 | 1.7 | 4.3 | 0.00 | 0.00 | 0.00 | 33 | 1014.7 |
| 20260509133519 | 68 | 234 | 1.7 | 3.5 | 0.00 | 0.00 | 0.00 | 34 | 1014.5 |
| 20260509133019 | 68 | 242 | 0.0 | 2.6 | 0.00 | 0.00 | 0.00 | 34 | 1014.4 |
| 20260509132515 | 67 | 242 | 0.9 | 2.6 | 0.00 | 0.00 | 0.00 | 35 | 1014.5 |
| 20260509132031 | 67 | 243 | 0.9 | 2.6 | 0.00 | 0.00 | 0.00 | 35 | 1014.5 |
| 20260509131526 | 67 | 243 | 0.0 | 1.7 | 0.00 | 0.00 | 0.00 | 35 | 1014.6 |
| 20260509131022 | 66 | 243 | 0.9 | 3.5 | 0.00 | 0.00 | 0.00 | 36 | 1014.4 |
| 20260509130518 | 66 | 244 | 1.7 | 3.5 | 0.00 | 0.00 | 0.00 | 36 | 1014.3 |
| 20260509130045 | 66 | 245 | 0.9 | 2.6 | 0.00 | 0.00 | 0.00 | 36 | 1014.3 |
| 20260509125531 | 66 | 245 | 0.9 | 3.5 | 0.00 | 0.00 | 0.00 | 36 | 1014.1 |
| 20260509125027 | 66 | 245 | 2.6 | 3.5 | 0.00 | 0.00 | 0.00 | 35 | 1014.2 |
| 20260509124524 | 65 | 246 | 0.9 | 2.6 | 0.00 | 0.00 | 0.00 | 36 | 1014.0 |
| 20260509124019 | 65 | 246 | 0.9 | 1.7 | 0.00 | 0.00 | 0.00 | 36 | 1014.1 |
| 20260509123515 | 65 | 246 | 0.9 | 1.7 | 0.00 | 0.00 | 0.00 | 36 | 1014.0 |
| 20260509123031 | 66 | 246 | 0.9 | 1.7 | 0.00 | 0.00 | 0.00 | 35 | 1014.0 |
| 20260509122527 | 65 | 247 | 0.9 | 1.7 | 0.00 | 0.00 | 0.00 | 36 | 1014.0 |
| 20260509122027 | 65 | 247 | 0.0 | 2.6 | 0.00 | 0.00 | 0.00 | 36 | 1013.9 |
| 20260509121523 | 66 | 247 | 0.9 | 2.6 | 0.00 | 0.00 | 0.00 | 35 | 1013.9 |
| 20260509121019 | 65 | 247 | 0.9 | 3.5 | 0.00 | 0.00 | 0.00 | 36 | 1013.9 |
| 20260509120515 | 65 | 248 | 2.6 | 3.5 | 0.00 | 0.00 | 0.00 | 36 | 1013.8 |
| 20260509120043 | 65 | 248 | 0.9 | 2.6 | 0.00 | 0.00 | 0.00 | 36 | 1013.8 |
| 20260509115524 | 65 | 248 | 0.9 | 2.6 | 0.00 | 0.00 | 0.00 | 36 | 1013.8 |
| 20260509115020 | 65 | 248 | 0.0 | 2.6 | 0.00 | 0.00 | 0.00 | 36 | 1013.7 |
| 20260509114520 | 65 | 248 | 1.7 | 2.6 | 0.00 | 0.00 | 0.00 | 36 | 1013.7 |
| 20260509114016 | 65 | 249 | 0.9 | 1.7 | 0.00 | 0.00 | 0.00 | 36 | 1013.8 |
| 20260509113512 | 65 | 249 | 0.0 | 0.0 | 0.00 | 0.00 | 0.00 | 37 | 1013.7 |
| 20260509113028 | 64 | 249 | 0.0 | 0.0 | 0.00 | 0.00 | 0.00 | 37 | 1013.7 |
| 20260509112523 | 64 | 249 | 0.0 | 0.0 | 0.00 | 0.00 | 0.00 | 36 | 1013.7 |
| 20260509112019 | 65 | 249 | 0.0 | 0.0 | 0.00 | 0.00 | 0.00 | 36 | 1013.5 |
| 20260509111515 | 65 | 249 | 0.0 | 0.0 | 0.00 | 0.00 | 0.00 | 36 | 1013.6 |
| 20260509111030 | 64 | 249 | 0.0 | 0.0 | 0.00 | 0.00 | 0.00 | 37 | 1013.5 |
| 20260509110527 | 65 | 249 | 0.0 | 0.9 | 0.00 | 0.00 | 0.00 | 36 | 1013.5 |
| 20260509110034 | 65 | 249 | 0.0 | 0.9 | 0.00 | 0.00 | 0.00 | 36 | 1013.4 |
| 20260509105516 | 65 | 249 | 0.0 | 0.9 | 0.00 | 0.00 | 0.00 | 34 | 1013.4 |
| 20260509105012 | 66 | 249 | 0.0 | 1.7 | 0.00 | 0.00 | 0.00 | 34 | 1013.4 |
| 20260509104527 | 65 | 249 | 0.0 | 0.9 | 0.00 | 0.00 | 0.00 | 35 | 1013.5 |
| 20260509104023 | 64 | 249 | 0.0 | 0.9 | 0.00 | 0.00 | 0.00 | 37 | 1013.4 |
| 20260509103519 | 65 | 249 | 0.0 | 0.0 | 0.00 | 0.00 | 0.00 | 36 | 1013.4 |
| 20260509103020 | 66 | 249 | 0.0 | 0.9 | 0.00 | 0.00 | 0.00 | 34 | 1013.3 |
| 20260509102515 | 66 | 249 | 0.0 | 1.7 | 0.00 | 0.00 | 0.00 | 34 | 1013.3 |
| 20260509102031 | 67 | 249 | 0.9 | 1.7 | 0.00 | 0.00 | 0.00 | 33 | 1013.4 |
| 20260509101527 | 67 | 249 | 0.9 | 1.7 | 0.00 | 0.00 | 0.00 | 33 | 1013.4 |
| 20260509101023 | 66 | 249 | 0.9 | 1.7 | 0.00 | 0.00 | 0.00 | 33 | 1013.4 |
| 20260509100519 | 66 | 249 | 0.9 | 2.6 | 0.00 | 0.00 | 0.00 | 33 | 1013.4 |
| 20260509100026 | 68 | 249 | 0.9 | 2.6 | 0.00 | 0.00 | 0.00 | 32 | 1013.4 |
| 20260509095511 | 69 | 249 | 0.0 | 5.2 | 0.00 | 0.00 | 0.00 | 31 | 1013.3 |
| 20260509095027 | 71 | 249 | 0.9 | 5.2 | 0.00 | 0.00 | 0.00 | 29 | 1013.4 |
| 20260509094523 | 70 | 266 | 2.6 | 5.2 | 0.00 | 0.00 | 0.00 | 29 | 1013.3 |
| 20260509094018 | 69 | 275 | 0.9 | 1.7 | 0.00 | 0.00 | 0.00 | 31 | 1013.3 |
| 20260509093513 | 71 | 275 | 0.9 | 1.7 | 0.00 | 0.00 | 0.00 | 29 | 1013.3 |
| 20260509093029 | 70 | 275 | 0.9 | 1.7 | 0.00 | 0.00 | 0.00 | 29 | 1013.3 |
| 20260509092525 | 71 | 275 | 0.9 | 2.6 | 0.00 | 0.00 | 0.00 | 28 | 1013.3 |
| 20260509092025 | 72 | 275 | 0.9 | 2.6 | 0.00 | 0.00 | 0.00 | 27 | 1013.3 |
| 20260509091522 | 72 | 275 | 1.7 | 2.6 | 0.00 | 0.00 | 0.00 | 27 | 1013.3 |
| 20260509091017 | 72 | 275 | 0.9 | 1.7 | 0.00 | 0.00 | 0.00 | 27 | 1013.4 |
| 20260509090513 | 72 | 275 | 0.9 | 3.5 | 0.00 | 0.00 | 0.00 | 27 | 1013.5 |
| 20260509090041 | 73 | 275 | 0.9 | 3.5 | 0.00 | 0.00 | 0.00 | 27 | 1013.4 |
| 20260509085523 | 72 | 277 | 1.7 | 3.5 | 0.00 | 0.00 | 0.00 | 28 | 1013.5 |
| 20260509085019 | 70 | 277 | 1.7 | 2.6 | 0.00 | 0.00 | 0.00 | 30 | 1013.5 |
| 20260509084519 | 70 | 277 | 1.7 | 2.6 | 0.00 | 0.00 | 0.00 | 30 | 1013.4 |
| 20260509084014 | 71 | 277 | 1.7 | 2.6 | 0.00 | 0.00 | 0.00 | 29 | 1013.5 |
| 20260509083530 | 73 | 277 | 1.7 | 2.6 | 0.00 | 0.00 | 0.00 | 26 | 1013.3 |
| 20260509083026 | 73 | 277 | 0.9 | 2.6 | 0.00 | 0.00 | 0.00 | 27 | 1013.5 |
| 20260509082522 | 70 | 277 | 0.9 | 2.6 | 0.00 | 0.00 | 0.00 | 29 | 1013.5 |
| 20260509082019 | 71 | 277 | 1.7 | 2.6 | 0.00 | 0.00 | 0.00 | 29 | 1013.5 |
| 20260509081515 | 71 | 277 | 1.7 | 1.7 | 0.00 | 0.00 | 0.00 | 29 | 1013.4 |
| 20260509081014 | 71 | 277 | 0.9 | 1.7 | 0.00 | 0.00 | 0.00 | 28 | 1013.4 |
| 20260509080530 | 72 | 277 | 0.9 | 1.7 | 0.00 | 0.00 | 0.00 | 27 | 1013.4 |
| 20260509080037 | 73 | 277 | 0.0 | 0.9 | 0.00 | 0.00 | 0.00 | 26 | 1013.4 |
| 20260509075519 | 72 | 277 | 0.0 | 2.6 | 0.00 | 0.00 | 0.00 | 26 | 1013.4 |
| 20260509075015 | 72 | 277 | 0.9 | 2.6 | 0.00 | 0.00 | 0.00 | 26 | 1013.5 |
| 20260509074531 | 73 | 277 | 0.9 | 1.7 | 0.00 | 0.00 | 0.00 | 26 | 1013.4 |
| 20260509074027 | 72 | 277 | 0.0 | 1.7 | 0.00 | 0.00 | 0.00 | 27 | 1013.4 |
| 20260509073522 | 72 | 277 | 0.9 | 2.6 | 0.00 | 0.00 | 0.00 | 26 | 1013.4 |
| 20260509073022 | 73 | 277 | 0.9 | 2.6 | 0.00 | 0.00 | 0.00 | 25 | 1013.4 |
| 20260509072518 | 74 | 277 | 0.0 | 1.7 | 0.00 | 0.00 | 0.00 | 23 | 1013.5 |
| 20260509072014 | 74 | 277 | 0.9 | 1.7 | 0.00 | 0.00 | 0.00 | 23 | 1013.4 |
| 20260509071530 | 74 | 277 | 0.0 | 0.9 | 0.00 | 0.00 | 0.00 | 23 | 1013.5 |
| 20260509071026 | 74 | 277 | 0.0 | 1.7 | 0.00 | 0.00 | 0.00 | 23 | 1013.6 |
| 20260509070522 | 76 | 277 | 0.9 | 1.7 | 0.00 | 0.00 | 0.00 | 22 | 1013.4 |
| 20260509070030 | 76 | 277 | 0.9 | 1.7 | 0.00 | 0.00 | 0.00 | 21 | 1013.5 |
| 20260509065515 | 76 | 277 | 0.9 | 1.7 | 0.00 | 0.00 | 0.00 | 20 | 1013.5 |
| 20260509065030 | 77 | 277 | 1.7 | 1.7 | 0.00 | 0.00 | 0.00 | 19 | 1013.4 |
| 20260509064526 | 79 | 277 | 0.9 | 3.5 | 0.00 | 0.00 | 0.00 | 18 | 1013.4 |
| 20260509064022 | 78 | 277 | 1.7 | 3.5 | 0.00 | 0.00 | 0.00 | 18 | 1013.5 |
| 20260509063518 | 77 | 270 | 1.7 | 3.5 | 0.00 | 0.00 | 0.00 | 20 | 1013.6 |
| 20260509063014 | 77 | 270 | 1.7 | 3.5 | 0.00 | 0.00 | 0.00 | 20 | 1013.4 |
| 20260509062529 | 76 | 271 | 1.7 | 3.5 | 0.00 | 0.00 | 0.00 | 20 | 1013.5 |
| 20260509062029 | 74 | 306 | 2.6 | 3.5 | 0.00 | 0.00 | 0.00 | 23 | 1013.4 |
| 20260509061524 | 75 | 307 | 1.7 | 2.6 | 0.00 | 0.00 | 0.00 | 23 | 1013.4 |
| 20260509061020 | 76 | 307 | 1.7 | 2.6 | 0.00 | 0.00 | 0.00 | 21 | 1013.3 |
| 20260509060516 | 76 | 307 | 1.7 | 2.6 | 0.00 | 0.00 | 0.00 | 21 | 1013.3 |
| 20260509060043 | 76 | 307 | 1.7 | 2.6 | 0.00 | 0.00 | 0.00 | 21 | 1013.4 |
| 20260509055524 | 76 | 307 | 1.7 | 2.6 | 0.00 | 0.00 | 0.00 | 21 | 1013.3 |
| 20260509055020 | 76 | 307 | 1.7 | 2.6 | 0.00 | 0.00 | 0.00 | 21 | 1013.3 |
| 20260509054520 | 76 | 307 | 1.7 | 3.5 | 0.00 | 0.00 | 0.00 | 20 | 1013.2 |
| 20260509054016 | 76 | 307 | 1.7 | 3.5 | 0.00 | 0.00 | 0.00 | 21 | 1013.2 |
| 20260509053531 | 76 | 307 | 2.6 | 2.6 | 0.00 | 0.00 | 0.00 | 20 | 1013.3 |
| 20260509053027 | 77 | 308 | 1.7 | 3.5 | 0.00 | 0.00 | 0.00 | 20 | 1013.1 |
| 20260509052523 | 77 | 308 | 1.7 | 3.5 | 0.00 | 0.00 | 0.00 | 21 | 1013.2 |
| 20260509052019 | 78 | 308 | 2.6 | 3.5 | 0.00 | 0.00 | 0.00 | 19 | 1013.2 |
| 20260509051515 | 76 | 309 | 1.7 | 3.5 | 0.00 | 0.00 | 0.00 | 21 | 1013.3 |
| 20260509051015 | 76 | 310 | 1.7 | 2.6 | 0.00 | 0.00 | 0.00 | 22 | 1013.2 |
| 20260509050530 | 76 | 310 | 1.7 | 2.6 | 0.00 | 0.00 | 0.00 | 21 | 1013.2 |
| 20260509050039 | 76 | 310 | 1.7 | 2.6 | 0.00 | 0.00 | 0.00 | 21 | 1013.1 |
| 20260509045520 | 77 | 310 | 1.7 | 2.6 | 0.00 | 0.00 | 0.00 | 21 | 1013.2 |
| 20260509045016 | 77 | 310 | 1.7 | 2.6 | 0.00 | 0.00 | 0.00 | 21 | 1013.1 |
| 20260509044532 | 77 | 310 | 1.7 | 2.6 | 0.00 | 0.00 | 0.00 | 20 | 1012.9 |
| 20260509044028 | 79 | 310 | 0.9 | 2.6 | 0.00 | 0.00 | 0.00 | 19 | 1013.0 |
| 20260509043524 | 79 | 310 | 0.9 | 2.6 | 0.00 | 0.00 | 0.00 | 18 | 1012.8 |
| 20260509043023 | 80 | 310 | 0.9 | 2.6 | 0.00 | 0.00 | 0.00 | 17 | 1012.9 |
| 20260509042519 | 80 | 310 | 0.9 | 2.6 | 0.00 | 0.00 | 0.00 | 18 | 1012.8 |
| 20260509042016 | 79 | 310 | 1.7 | 2.6 | 0.00 | 0.00 | 0.00 | 18 | 1012.8 |
| 20260509041532 | 79 | 310 | 1.7 | 2.6 | 0.00 | 0.00 | 0.00 | 18 | 1012.7 |
| 20260509041027 | 80 | 310 | 1.7 | 2.6 | 0.00 | 0.00 | 0.00 | 18 | 1012.6 |
| 20260509040523 | 80 | 310 | 1.7 | 2.6 | 0.00 | 0.00 | 0.00 | 18 | 1012.5 |
| 20260509040032 | 80 | 310 | 1.7 | 2.6 | 0.00 | 0.00 | 0.00 | 17 | 1012.5 |
| 20260509035517 | 80 | 310 | 1.7 | 2.6 | 0.00 | 0.00 | 0.00 | 17 | 1012.5 |
| 20260509035033 | 80 | 310 | 1.7 | 2.6 | 0.00 | 0.00 | 0.00 | 17 | 1012.4 |
| 20260509034529 | 80 | 310 | 1.7 | 2.6 | 0.00 | 0.00 | 0.00 | 17 | 1012.4 |
| 20260509034024 | 80 | 310 | 1.7 | 2.6 | 0.00 | 0.00 | 0.00 | 16 | 1012.3 |
| 20260509033520 | 81 | 310 | 1.7 | 2.6 | 0.00 | 0.00 | 0.00 | 17 | 1012.4 |
| 20260509033016 | 81 | 310 | 1.7 | 2.6 | 0.00 | 0.00 | 0.00 | 16 | 1012.4 |
| 20260509032531 | 81 | 310 | 1.7 | 2.6 | 0.00 | 0.00 | 0.00 | 16 | 1012.2 |
| 20260509032031 | 81 | 310 | 1.7 | 3.5 | 0.00 | 0.00 | 0.00 | 16 | 1012.2 |
| 20260509031528 | 82 | 310 | 1.7 | 3.5 | 0.00 | 0.00 | 0.00 | 16 | 1012.2 |
| 20260509031024 | 82 | 310 | 1.7 | 2.6 | 0.00 | 0.00 | 0.00 | 16 | 1012.2 |
| 20260509030520 | 82 | 310 | 1.7 | 2.6 | 0.00 | 0.00 | 0.00 | 16 | 1012.1 |
| 20260509030047 | 82 | 310 | 1.7 | 2.6 | 0.00 | 0.00 | 0.00 | 16 | 1012.0 |
| 20260509025528 | 83 | 310 | 0.9 | 2.6 | 0.00 | 0.00 | 0.00 | 15 | 1011.9 |
| 20260509025024 | 83 | 310 | 0.9 | 2.6 | 0.00 | 0.00 | 0.00 | 14 | 1011.9 |
| 20260509024524 | 84 | 310 | 1.7 | 2.6 | 0.00 | 0.00 | 0.00 | 14 | 1011.8 |
| 20260509024020 | 85 | 310 | 1.7 | 3.5 | 0.00 | 0.00 | 0.00 | 13 | 1011.8 |
| 20260509023516 | 86 | 310 | 1.7 | 3.5 | 0.00 | 0.00 | 0.00 | 13 | 1011.7 |
| 20260509023031 | 86 | 310 | 1.7 | 3.5 | 0.00 | 0.00 | 0.00 | 13 | 1011.7 |
| 20260509022527 | 87 | 311 | 0.9 | 3.5 | 0.00 | 0.00 | 0.00 | 13 | 1011.6 |
| 20260509022023 | 87 | 311 | 0.9 | 1.7 | 0.00 | 0.00 | 0.00 | 12 | 1011.4 |
| 20260509021519 | 87 | 312 | 0.0 | 2.6 | 0.00 | 0.00 | 0.00 | 13 | 1011.4 |
| 20260509021019 | 88 | 312 | 0.9 | 3.5 | 0.00 | 0.00 | 0.00 | 12 | 1011.4 |
| 20260509020515 | 88 | 302 | 1.7 | 3.5 | 0.00 | 0.00 | 0.00 | 12 | 1011.4 |
| 20260509020042 | 89 | 290 | 1.7 | 3.5 | 0.00 | 0.00 | 0.00 | 12 | 1011.3 |
| 20260509015523 | 89 | 360 | 1.7 | 3.5 | 0.00 | 0.00 | 0.00 | 12 | 1011.3 |
| 20260509015019 | 89 | 321 | 0.9 | 4.3 | 0.00 | 0.00 | 0.00 | 11 | 1011.3 |
| 20260509014515 | 89 | 342 | 1.7 | 6.1 | 0.00 | 0.00 | 0.00 | 11 | 1011.2 |
| 20260509014031 | 90 | 304 | 2.6 | 6.1 | 0.00 | 0.00 | 0.00 | 11 | 1011.1 |
| 20260509013526 | 90 | 342 | 2.6 | 8.7 | 0.00 | 0.00 | 0.00 | 11 | 1011.1 |
| 20260509013026 | 90 | 317 | 2.6 | 8.7 | 0.00 | 0.00 | 0.00 | 11 | 1011.0 |
| 20260509012522 | 90 | 316 | 2.6 | 4.3 | 0.00 | 0.00 | 0.00 | 11 | 1011.0 |
| 20260509012019 | 91 | 306 | 1.7 | 7.0 | 0.00 | 0.00 | 0.00 | 11 | 1011.0 |
| 20260509011515 | 91 | 323 | 2.6 | 7.0 | 0.00 | 0.00 | 0.00 | 11 | 1011.0 |
| 20260509011031 | 91 | 292 | 0.9 | 7.0 | 0.00 | 0.00 | 0.00 | 10 | 1011.0 |
| 20260509010526 | 91 | 336 | 1.7 | 7.0 | 0.00 | 0.00 | 0.00 | 10 | 1011.1 |
| 20260509010034 | 92 | 310 | 2.6 | 6.1 | 0.00 | 0.00 | 0.00 | 10 | 1011.2 |
| 20260509005519 | 91 | 355 | 2.6 | 6.1 | 0.00 | 0.00 | 0.00 | 10 | 1011.1 |
| 20260509005016 | 92 | 344 | 2.6 | 7.0 | 0.00 | 0.00 | 0.00 | 10 | 1011.1 |
| 20260509004533 | 92 | 324 | 1.7 | 7.0 | 0.00 | 0.00 | 0.00 | 10 | 1011.1 |
| 20260509004029 | 93 | 322 | 1.7 | 8.7 | 0.00 | 0.00 | 0.00 | 10 | 1011.1 |
| 20260509003524 | 93 | 315 | 4.3 | 8.7 | 0.00 | 0.00 | 0.00 | 10 | 1011.1 |
| 20260509003019 | 92 | 306 | 4.3 | 7.8 | 0.00 | 0.00 | 0.00 | 10 | 1011.1 |
| 20260509002515 | 92 | 311 | 3.5 | 10.4 | 0.00 | 0.00 | 0.00 | 10 | 1011.0 |